Flag Weather past 2 weeks in Sunnyvale, California, U.S.A.

Now
71 °F

Sunny.


Feels Like: 77 °F
Forecast: 54 / 73 °F
Wind: 3 mph from Northeast

Location: Moffett Field

Current Time: Oct 30, 2014 at 4:21:24 PM

Latest Report: Oct 30, 2014 at 3:56 PM


Visibility: 10 mi

Pressure: 29.91 "Hg

Humidity: 55%

Dew point: 54 °F

Location of SunnyvaleLocation

Historic Weather in Sunnyvale — Graph

°F

Sunnyvale temperature yesterday

Maximum temperature yesterday: 79 °F (at 2:56 PM)
Minimum temperature yesterday: 52 °F (at 4:56 AM)
Average temperature yesterday: 64 °F

Past Weeks' High & Low Weather Summary

 TemperatureHumidityPressure
High79 °F (Oct 29, 2:56 PM)100% (Oct 19, 4:56 AM)30.19 "Hg (Oct 19, 4:56 AM)
Low49 °F (Oct 27, 5:56 AM)32% (Oct 29, 2:56 PM)29.86 "Hg (Oct 19, 4:56 PM)
Average63 °F71%30.02 "Hg
* Reported Oct 15 2:56 PM — Oct 30 2:56 PM, Sunnyvale, Weather by CustomWeather, © 2014

Note: Actual official high and low records may vary slightly from our data, if they occured in-between our weather recording intervals... More about our weather records

Advertising

Sunnyvale weather history for previous 24 hours

 ConditionsComfort  
Time TempWeatherWind HumidityBarometerVisibility
2:56 PM
Oct 30
70 °FSunny.13 mph59%29.89 "Hg10 mi
1:56 PM75 °FSunny.14 mph43%29.89 "Hg10 mi
12:56 PM77 °FSunny.5 mph36%29.91 "Hg10 mi
11:56 AM70 °FSunny.5 mph57%29.94 "Hg10 mi
10:56 AM68 °FSunny.3 mph59%29.95 "Hg10 mi
9:56 AM64 °FSunny.No wind68%29.96 "Hg10 mi
8:56 AM62 °FSunny.No wind65%29.97 "Hg10 mi
7:56 AM59 °FClear.No wind75%29.96 "Hg10 mi
6:56 AM58 °FClear.No wind75%29.94 "Hg10 mi
5:56 AM57 °FClear.No wind72%29.93 "Hg10 mi
4:56 AM58 °FClear.No wind75%29.93 "Hg10 mi
3:56 AM57 °FClear.No wind78%29.94 "Hg10 mi
2:56 AM58 °FClear.No wind72%29.96 "Hg10 mi
1:56 AM59 °FClear.No wind69%29.96 "Hg10 mi
12:56 AM59 °FClear.No wind64%29.98 "Hg10 mi
11:56 PM
Oct 29
62 °FClear.No wind60%29.99 "Hg10 mi
10:56 PM62 °FClear.No wind60%30.00 "Hg10 mi
9:56 PM64 °FClear.No wind56%29.99 "Hg10 mi
8:56 PM67 °FClear.No wind53%29.99 "Hg10 mi
7:56 PM69 °FClear.No wind47%30.00 "Hg10 mi
6:56 PM72 °FSunny.No wind43%29.99 "Hg10 mi
5:56 PM74 °FSunny.No wind40%29.98 "Hg10 mi
4:56 PM75 °FSunny.7 mph43%30.00 "Hg10 mi
Weather by CustomWeather, © 2014

See weather overviewHow to use our weather pages